Погода в Буке

Узбекистан     40°48′51″N   69°12′04″E
темп.,
°C
ветер,
м/с
пор.,
м/с
влажн.,
%
обл.,
%
осадки,
мм/ч
давл.,
гПа
погр.,
м
1 марта, пн
пн123:00+4ссв126546 0.0 102224
02:00+4ююв1163100 0.0 102122
05:00+3всв0159100 0.0 102122
08:00+5с115244 0.0 102122
11:00+11з113223 0.0 1020282
14:00+15сз01250 0.0 1019507
17:00+16ююз00300 0.0 1019315
20:00+11ююв01390 0.0 102123
2 марта, вт
вт223:00+10ююв22360 0.0 102224
02:00+9ю223367 0.0 102224
05:00+8ююз123483 0.0 102223
08:00+7с3445100 0.0 102366
11:00+12ссв3435100 0.0 1022362
14:00+15ссв3327100 0.0 1021780
17:00+14ссв4634100 0.0 1021447
20:00+12с3544100 0.0 1023103
3 марта, ср
ср323:00+9ссз2256100 0.0 102329
02:00+10в2357100 0.1 102442
05:00+7з2367100 0.2 102487
08:00+7ююв1264100 0.0 102499
11:00+10ююв2262100 0.0 1023314
14:00+12вюв235898 0.1 1021761
17:00+13юв125097 0.1 10201401
20:00+10юв2266100 0.6 1022156
4 марта, чт
чт423:00+9св346687 0.7 102267
02:00+8юв236411 0.0 102039
05:00+7ссз01725 0.0 102022
08:00+8з11703 0.1 102025
11:00+14в024840 0.3 1018298
14:00+17ссв233794 0.0 10171165
17:00+12всв117297 1.1 1018182
20:00+12юв357095 0.4 1020158
5 марта, пт
пт523:00+11ююв227091 0.8 102229
02:00+9з348199 0.1 1022230
05:00+4ссз61090100 0.9 1025571
08:00+2св3595100 5.6 1029294
11:00+6ссз347085 6.1 1028703
14:00+9св44550 0.0 1026989
17:00+9св33550 0.0 1024688
20:00+7всв236941 0.0 102458